星链-32756 (STARLINK-32756)

导读

STARLINK-32756是美国太空探索技术公司(SpaceX)星链互联网星座的成员卫星,于2025年1月21日发射入轨,归属美国。星链项目旨在通过低轨卫星组网,为全球提供覆盖广泛的高速卫星互联网服务,该卫星是星链大规模部署计划中的组成单元,承担星座组网运行中部分通信转发功能,助力全球网络覆盖能力拓展。

基本信息
目录编号:
62752
目录名称:
STARLINK-32756
国际标识:
2025-014T
轨道中心:
EARTH
卫星名称:
星链-32756
卫星全名:
星链-32756 (STARLINK-32756)
卫星状态:
在轨 (已飞行509 天)
发射日期:
2025-01-21 UTC
国别 :
美国 (US)
星等 :
--
轨道信息
数据来源 国际轨道数据
星历时间: 2026-06-14T01:57:29+0800
15小时前
查看轨道信息
半长轴: 6861.098km
偏心率: 0.0003628
轨道倾角: 43.015°
近地点辐角 111.159°
升交点赤经 332.313°
平近点角 248.965°
近地点: 480.471km
远地点: 485.451km
周期: 94.265分钟
每日圈数: 15.276096
详细信息
固有亮度:
5
最大亮度:
2.5
卫星平台:
Starlink V1.0
覆盖范围:
全球
运营商:
太空探索技术公司
运营商所在国:
美国
制造商(研发单位):
太空探索技术公司
制造商所在国:
美国
使用方式:
暂无
卫星简介
Starlink 计划是 SpaceX 推出的全球卫星互联网项目,通过发射低轨道卫星,为全球尤其是偏远地区提供高速、低延迟的互联网服务。自 2019 年起,Starlink 已部署数千颗卫星,旨在缩小全球数字鸿沟,推动互联网普及。该项目还为军事、航空等行业提供通信支持,带来广泛经济效益。
2D轨道图
3D轨道图
轨道高度分析图
轨道倾角分析图
轨道综合分析图
查看轨道综合分析图